Regional Weather Roundup
Issued by NWS

Home | Current Version | Previous Version | Text Only | Print | Product List | Glossary On
Versions: 1 2 3 4 5 6 7 8 9 10 11 12 13 14 15 16 17 18 19 20 21 22 23 24 25 26 27 28 29 30 31 32 33 34 35 36 37 38 39 40 41 42 43 44 45 46 47 48 49 50
000
ASUS43 KBIS 310410
RWRND

NORTH DAKOTA REGIONAL WEATHER ROUNDUP
NATIONAL WEATHER SERVICE BISMARCK ND
1100 PM CDT SUN AUG 30 2015

NOTE: "FAIR" INDICATES FEW OR NO CLOUDS BELOW 12,000 FEET WITH NO
SIGNIFICANT WEATHER AND/OR OBSTRUCTIONS TO VISIBILITY.


NDZ001>003-009>011-017-310500-
NORTHWEST NORTH DAKOTA

CITY           SKY/WX    TMP DP  RH WIND       PRES   REMARKS
WILLISTON      MOCLDY    69  49  48 S3        29.73R
MINOT          CLOUDY    68  53  58 NW7       29.67F
MINOT AFB      MOCLDY    64  55  72 NW2       29.66F
$$

NDZ018>021-031>035-040>046-310500-
SOUTHWEST NORTH DAKOTA

CITY           SKY/WX    TMP DP  RH WIND       PRES   REMARKS
BISMARCK       PTCLDY    76  58  53 NW3       29.65S
DICKINSON      CLOUDY    69  50  50 N9        29.69F
GARRISON         N/A     70  56  61 N5        29.67F
HETTINGER ARPT CLOUDY    73  53  49 E6        29.71F HAZE
$$

NDZ004>008-012>016-024-026-027-054-310500-
NORTHEAST NORTH DAKOTA

CITY           SKY/WX    TMP DP  RH WIND       PRES   REMARKS
GRAND FORKS    PTCLDY    75  69  81 S17       29.66S
GRND FRKS AFB  CLEAR     76  69  80 S13       29.67R
DEVILS LAKE    PTCLDY    75  64  69 S9        29.65F
$$

NDZ022-023-025-028>030-036>039-047>053-310500-
SOUTHEAST NORTH DAKOTA

CITY           SKY/WX    TMP DP  RH WIND       PRES   REMARKS
FARGO          PTCLDY    75  67  76 S18       29.72S
JAMESTOWN      PTCLDY    73  68  84 S15       29.68F
$$



USA.gov is the U.S. government's official web portal to all federal, state and local government web resources and services.